Wetbulb
43.62 43.17 42.33 41.98 41.92 41.34 40.38 39.97 39.99 40.39 40.58 40.50 40.83 40.79 40.79 40.68 40.78 40.22 39.91 40.11 40.09 40.32 41.00 41.00 40.73 41.14 40.52 39.17 38.88 40.58 42.43 42.47 39.79 33.43 33.51 33.62 32.28 31.76 31.71 32.15 33.82 29.42 32.14
42.07 41.48 41.05 41.02 40.60 39.74 39.51 39.41 39.40 38.70 39.07 38.80 39.05 38.81 38.82 39.08 38.90 38.18 37.66 38.13 37.69 37.38 37.78 38.43 38.67 40.32 37.80 37.27 36.05 35.68 39.62 40.44 37.49 31.54 30.98 30.20 30.11 30.35 29.74 28.68 31.44 29.67 28.51
40.17 39.68 39.33 39.00 38.83 38.75 39.03 38.90 38.66 37.75 37.15 36.96 37.24 36.56 36.77 36.89 37.03 37.11 37.07 36.76 36.70 36.86 36.86 36.57 36.66 36.51 34.39 33.14 32.42 31.23 31.82 35.20 35.84 33.20 29.64 29.03 29.26 28.71 28.12 28.10 28.35 27.98 27.83
38.53 38.16 37.14 36.97 37.22 37.05 37.15 36.75 36.47 36.39 35.54 35.36 35.42 35.58 35.58 35.87 36.06 35.81 36.05 34.99 34.72 35.48 35.44 35.01 34.68 33.64 32.06 31.30 30.94 29.62 29.78 29.25 30.13 29.68 27.92 28.25 27.63 28.10 27.64 24.30 22.98 24.54 23.41
36.58 36.47 36.28 35.74 35.73 34.71 33.87 34.00 34.09 33.32 34.01 34.11 34.08 33.51 33.65 34.42 35.41 33.66 33.37 32.67 32.13 32.21 32.46 33.10 32.38 31.29 30.95 30.74 28.89 28.28 27.99 27.56 28.33 28.05 25.93 24.24 23.91 24.25 23.62 24.47 23.26 23.71 22.28
35.14 34.54 34.59 33.15 32.03 31.57 31.67 31.31 31.02 30.87 31.39 31.40 30.63 30.97 30.95 33.80 36.31 37.17 36.00 30.95 30.74 30.56 30.48 30.22 29.78 28.11 28.81 30.28 30.32 30.72 30.37 28.77 28.64 28.08 26.84 25.48 24.81 24.52 25.10 23.85 23.25 20.26 18.39
31.70 31.54 30.11 29.55 29.26 29.53 29.62 29.47 29.54 29.23 29.51 29.21 29.24 29.38 29.09 29.74 35.38 36.36 36.05 31.65 30.23 29.93 29.64 29.08 28.16 27.00 27.47 26.33 29.30 29.44 28.38 29.25 28.18 28.43 26.92 26.41 24.15 24.47 25.66 24.55 22.92 22.29 20.31
29.52 28.08 27.87 27.64 27.51 27.88 27.82 28.02 28.27 28.65 28.38 28.60 28.59 28.57 28.49 29.87 34.55 35.36 34.94 31.20 29.99 29.90 29.60 28.43 27.28 25.71 26.44 26.13 25.08 23.45 22.13 22.44 22.62 23.29 22.88 23.16 23.73 25.50 25.78 25.22 23.79 18.08 16.15
26.40 25.82 25.95 26.07 25.95 26.09 25.80 26.05 26.79 27.26 27.50 27.69 28.41 27.66 27.36 28.06 32.04 32.86 32.85 29.65 29.41 29.53 29.77 27.88 26.90 26.24 28.52 30.34 24.40 22.22 21.14 21.91 25.65 26.03 26.41 27.31 26.69 25.03 22.44 19.71 15.83 15.42 13.44
23.63 23.76 23.89 24.17 24.11 23.46 24.37 24.92 26.03 26.27 27.19 27.67 27.63 27.70 27.36 27.32 30.57 31.79 31.35 29.10 28.10 28.86 30.23 27.42 28.43 26.98 30.02 31.20 23.99 21.72 19.33 20.21 22.30 21.32 21.12 21.13 20.64 21.70 21.23 19.78 18.90 15.89 12.36
21.67 21.12 20.81 21.58 21.77 22.90 23.33 23.85 24.10 24.62 25.53 24.88 26.10 26.79 26.15 26.95 27.66 31.20 31.28 28.89 28.23 28.41 28.94 27.01 24.82 30.23 30.27 30.92 28.42 22.07 20.57 22.02 21.12 14.75 13.69 13.22 13.27 13.08 13.31 14.29 15.21 16.94 14.37
17.41 16.49 17.13 17.88 20.18 22.37 20.33 21.22 21.65 21.99 22.82 24.23 24.29 24.79 26.26 27.10 28.52 29.61 30.42 30.48 30.35 28.21 28.36 27.93 25.20 28.89 30.17 31.16 31.01 25.49 25.89 22.49 15.08 13.00 11.81 11.02 10.52 9.96 10.06 10.89 11.78 12.10 14.04
11.18 11.58 13.81 16.51 19.36 20.33 19.43 19.70 19.71 19.65 19.68 20.17 21.54 21.59 22.43 24.17 25.00 28.29 29.47 29.59 29.11 26.75 27.83 28.90 27.79 28.99 30.77 30.92 30.93 27.52 24.81 16.23 14.24 12.04 11.22 11.23 11.08 10.36 9.39 8.64 9.43 10.51 10.25
7.96 11.19 14.37 16.59 16.97 18.02 19.89 20.50 18.50 17.93 18.51 20.21 20.28 20.15 20.78 21.81 22.66 23.81 23.38 22.62 25.47 26.13 27.56 26.58 27.83 28.21 28.79 24.29 23.78 21.71 16.77 15.52 14.14 12.96 11.70 10.19 9.88 8.76 7.39 8.23 6.52 6.82 4.89
8.91 11.31 13.61 15.14 14.12 15.93 17.69 17.29 18.69 19.41 20.48 20.00 19.67 20.40 20.37 20.15 22.03 26.75 27.62 26.59 25.83 26.25 26.23 19.97 23.98 22.27 14.02 12.47 12.14 12.13 12.84 13.40 12.60 11.14 8.81 7.40 7.71 7.85 6.70 8.12 7.47 7.11 5.10
6.70 9.93 10.56 12.41 12.53 14.52 14.23 14.26 19.55 21.33 22.94 23.94 24.74 23.67 22.97 25.35 26.55 27.32 29.12 28.99 28.69 28.30 24.42 16.36 18.93 16.14 12.82 11.04 9.62 9.39 10.78 10.98 10.29 9.54 8.27 7.79 6.72 5.50 4.40 4.82 5.22 5.33 4.67
1.33 5.11 8.19 9.84 11.24 11.19 11.45 11.49 9.80 14.56 20.20 21.05 22.02 22.71 23.87 25.25 25.36 26.33 26.95 27.96 27.21 26.76 21.93 16.31 15.49 13.26 11.13 10.17 8.96 8.58 7.63 9.15 9.72 8.77 8.33 7.46 6.59 5.06 3.32 2.75 3.29 3.68 2.76
-3.13 2.90 5.64 5.26 6.64 8.94 9.68 9.62 11.32 11.25 10.67 11.99 16.83 19.32 21.50 21.74 23.24 24.19 23.30 22.73 15.32 16.23 11.77 13.84 13.32 11.83 10.77 9.31 8.55 7.82 7.75 6.79 6.82 6.94 6.84 6.10 5.38 3.54 2.06 1.71 2.31 1.17 0.64
-1.49 0.96 1.09 0.60 3.97 7.26 9.17 10.62 10.65 10.48 10.68 10.59 11.63 14.60 15.44 19.52 20.14 18.91 19.27 11.60 1.08 6.79 12.50 12.59 12.45 11.04 10.77 10.15 9.51 8.35 6.06 5.38 5.34 4.49 3.66 2.79 2.42 1.85 1.21 1.32 1.02 0.31 -1.03
-1.55 3.43 5.55 4.25 5.57 7.98 9.16 8.51 8.35 8.76 8.77 8.97 8.98 9.02 10.95 5.90 6.14 5.75 5.94 10.23 10.64 11.64 12.04 11.68 8.79 9.42 9.91 9.42 7.94 5.87 4.53 4.11 3.16 2.48 1.18 0.89 0.97 1.43 0.18 -0.66 -2.67 -4.83 -4.79
-1.58 1.97 6.56 4.39 3.17 3.01 5.50 7.21 6.33 6.10 6.82 6.68 7.25 8.00 17.64 11.33 3.97 -0.94 3.54 7.53 8.12 9.65 9.44 8.97 8.66 7.12 7.53 6.57 5.34 4.20 3.24 2.59 1.97 1.00 -0.22 -0.89 -1.36 -1.74 -1.51 -1.44 -2.74 -4.51 -5.51
0.95 4.74 4.75 4.78 6.89 7.04 6.41 3.05 4.66 6.16 5.61 4.22 5.88 5.99 14.58 8.93 7.64 4.33 3.30 5.76 6.20 7.03 7.88 7.35 6.11 5.45 4.90 4.54 3.98 3.27 2.15 0.66 0.26 -0.12 -1.09 -2.03 -3.05 -3.23 -3.34 -4.14 -5.26 -6.82 -7.67
2.93 3.75 3.86 3.78 3.71 4.33 5.17 0.41 3.71 1.77 3.27 0.29 1.92 4.31 5.56 7.18 6.67 6.41 4.33 5.36 5.36 4.86 5.41 5.96 4.84 3.57 3.80 3.87 4.28 3.67 1.82 0.62 0.46 0.16 -1.93 -3.82 -4.70 -5.88 -6.04 -7.34 -7.82 -9.63 -11.33
0.41 3.65 3.94 4.18 2.01 2.24 1.49 2.84 -0.87 -0.30 0.84 -0.65 -1.51 -0.59 3.68 4.61 3.73 5.08 5.13 4.45 4.36 3.11 2.84 2.91 3.51 2.47 1.60 1.20 1.51 2.03 2.36 1.74 0.69 -0.19 -2.09 -4.86 -6.42 -7.18 -8.30 -9.57 -10.20 -11.51 -10.59
2.10 2.81 0.70 -0.51 -0.45 -0.88 -2.09 -3.21 -2.46 -4.28 -4.14 -3.11 -1.83 -1.05 1.54 0.95 0.79 0.48 1.65 1.92 1.85 1.43 0.96 0.64 0.67 1.11 0.36 -0.42 -0.93 -1.23 -0.06 2.13 -2.92 -2.44 -4.14 -5.53 -7.21 -8.65 -9.66 -10.15 -11.37 -13.26 -15.02
-1.17 -3.52 -2.63 -3.45 -4.90 -4.66 -3.28 -1.41 -2.53 -3.39 -1.56 -0.80 0.15 0.59 0.37 -0.17 0.02 -0.47 -0.89 -1.70 -2.02 -1.81 -1.65 -2.16 -3.12 -3.55 -3.25 -3.25 -3.90 -3.07 -2.12 -0.82 -4.64 -5.38 -6.13 -6.82 -9.04 -10.86 -11.63 -12.49 -13.00 -12.75 -13.59
MSLP
1019.10 1019.06 1019.32 1019.44 1019.28 1019.21 1019.36 1019.17 1019.09 1018.96 1018.84 1018.34 1018.56 1018.58 1018.32 1018.18 1018.08 1017.81 1017.57 1017.38 1017.23 1017.21 1017.15 1016.88 1016.70 1016.66 1016.57 1016.77 1016.69 1016.76 1016.50 1016.32 1016.35 1016.99 1017.42 1018.10 1018.82 1019.04 1019.72 1020.12 1020.60 1020.75 1020.73
1019.44 1019.50 1019.80 1019.88 1019.50 1019.39 1019.44 1019.32 1019.20 1019.01 1018.56 1018.63 1018.60 1018.40 1018.29 1018.21 1018.02 1017.77 1017.42 1017.21 1017.08 1017.07 1016.76 1016.77 1016.52 1016.39 1016.31 1016.40 1016.49 1016.44 1016.35 1016.22 1016.24 1016.62 1017.08 1017.62 1017.79 1018.38 1019.02 1019.70 1020.09 1020.86 1021.10
1020.04 1019.99 1020.12 1020.15 1019.80 1019.63 1019.51 1019.34 1019.16 1018.99 1018.73 1018.54 1018.43 1018.30 1018.13 1017.86 1017.71 1017.50 1017.21 1016.93 1016.76 1016.57 1016.37 1016.43 1016.10 1016.06 1016.17 1016.31 1016.33 1016.33 1016.22 1015.94 1016.06 1016.36 1016.85 1017.12 1017.47 1018.14 1018.76 1019.29 1019.87 1020.63 1020.98
1020.51 1020.44 1020.64 1020.48 1020.11 1019.93 1019.99 1019.85 1019.64 1019.29 1019.00 1018.55 1018.30 1018.05 1017.82 1017.60 1017.42 1017.24 1017.09 1016.77 1016.53 1016.32 1016.11 1015.96 1015.88 1015.92 1015.91 1015.92 1016.05 1016.13 1016.04 1016.07 1016.00 1016.11 1016.49 1016.91 1017.51 1018.11 1018.66 1019.26 1020.22 1021.05 1021.37
1021.03 1020.95 1021.03 1020.92 1020.77 1020.61 1020.36 1020.01 1019.64 1019.31 1019.00 1018.57 1018.14 1017.73 1017.69 1017.67 1017.33 1017.01 1016.91 1016.72 1016.50 1016.23 1016.01 1015.87 1015.73 1015.63 1015.60 1015.57 1015.48 1015.59 1015.92 1016.12 1016.08 1016.08 1016.24 1016.78 1017.04 1017.51 1017.84 1018.75 1019.79 1020.61 1022.06
1021.67 1021.70 1021.63 1021.54 1021.35 1021.08 1020.76 1020.36 1019.92 1019.46 1019.00 1018.56 1018.22 1017.89 1017.58 1017.40 1017.09 1016.87 1016.66 1016.39 1016.13 1016.04 1015.74 1015.53 1015.50 1015.53 1015.62 1015.52 1015.26 1014.99 1014.95 1015.37 1015.83 1015.84 1015.73 1015.95 1016.07 1016.70 1017.49 1018.28 1019.28 1020.40 1021.48
1022.17 1022.21 1022.23 1022.16 1021.95 1021.53 1021.08 1020.65 1020.17 1019.61 1019.10 1018.77 1018.39 1017.92 1017.53 1017.26 1016.91 1016.52 1016.23 1015.94 1015.80 1015.58 1015.34 1015.10 1015.01 1015.14 1015.17 1015.35 1015.32 1015.24 1014.59 1014.28 1015.11 1015.64 1015.63 1015.28 1015.92 1015.80 1016.45 1017.48 1017.89 1018.68 1019.52
1022.66 1022.84 1022.73 1022.48 1022.24 1021.81 1021.37 1020.85 1020.31 1019.82 1019.39 1018.92 1018.36 1017.90 1017.53 1017.21 1016.72 1016.32 1015.93 1015.51 1015.25 1014.97 1014.80 1014.56 1014.37 1014.47 1014.74 1014.89 1015.31 1015.61 1015.82 1015.32 1014.78 1014.14 1014.75 1015.26 1015.26 1015.73 1016.25 1016.32 1017.68 1019.39 1020.22
1023.43 1023.41 1023.18 1022.88 1022.44 1022.00 1021.55 1021.03 1020.49 1019.91 1019.36 1018.86 1018.37 1017.89 1017.41 1016.92 1016.49 1015.97 1015.59 1015.12 1014.65 1014.20 1014.01 1013.78 1013.73 1013.79 1013.99 1014.23 1014.78 1015.03 1015.72 1015.83 1015.49 1015.55 1014.54 1014.68 1015.14 1016.48 1016.64 1017.11 1017.85 1018.98 1020.42
1024.07 1023.91 1023.59 1023.20 1022.84 1022.51 1021.95 1021.32 1020.75 1020.22 1019.47 1018.85 1018.27 1017.96 1017.43 1016.83 1016.49 1015.93 1015.38 1014.88 1014.37 1013.97 1013.61 1013.47 1013.35 1013.38 1013.64 1013.63 1014.09 1014.67 1015.06 1015.35 1015.40 1015.63 1016.13 1016.08 1016.43 1016.61 1017.02 1017.72 1017.82 1018.40 1019.45
1024.68 1024.37 1024.01 1023.56 1023.27 1022.72 1022.14 1021.65 1020.94 1020.12 1019.52 1018.93 1018.19 1017.73 1017.43 1016.88 1016.34 1015.88 1015.50 1015.00 1014.47 1013.60 1013.10 1013.08 1013.26 1013.51 1013.46 1013.37 1013.54 1013.97 1014.25 1015.01 1015.65 1016.24 1016.76 1017.11 1017.53 1017.72 1018.37 1018.47 1018.27 1018.29 1018.87
1025.14 1024.73 1024.23 1023.77 1023.39 1022.80 1022.33 1021.72 1021.08 1020.32 1019.61 1018.79 1017.98 1017.29 1016.92 1016.48 1016.22 1015.68 1015.14 1014.89 1014.54 1013.78 1012.84 1012.46 1012.60 1012.93 1013.28 1013.14 1013.11 1013.95 1014.30 1014.87 1015.75 1016.55 1017.39 1017.83 1017.93 1018.26 1019.13 1019.49 1019.57 1019.44 1019.42
1025.48 1024.98 1024.45 1023.87 1023.29 1022.76 1022.22 1021.74 1021.19 1020.50 1019.66 1018.79 1018.11 1017.45 1016.83 1016.53 1016.05 1015.77 1014.83 1014.48 1014.35 1013.78 1012.92 1012.00 1012.03 1012.28 1012.78 1012.63 1012.97 1013.64 1014.37 1015.44 1015.95 1016.57 1017.19 1017.65 1018.00 1018.90 1019.48 1019.95 1020.52 1020.68 1020.75
1025.99 1025.44 1024.80 1024.21 1023.58 1023.07 1022.54 1021.88 1021.24 1020.40 1019.52 1018.86 1018.25 1017.57 1016.87 1016.31 1015.70 1015.29 1014.69 1013.89 1013.57 1013.15 1012.46 1011.92 1011.78 1012.09 1012.55 1012.77 1013.04 1014.01 1014.82 1015.71 1016.34 1016.74 1017.34 1018.08 1018.77 1019.52 1019.72 1020.08 1020.79 1021.24 1021.36
1026.31 1025.64 1024.92 1024.35 1023.97 1023.26 1022.61 1022.05 1021.39 1020.80 1020.24 1019.21 1018.60 1017.99 1017.12 1016.16 1015.61 1014.80 1013.99 1013.08 1012.65 1012.35 1011.98 1012.09 1012.06 1012.40 1013.46 1013.89 1014.32 1014.95 1015.35 1015.92 1016.59 1017.19 1017.84 1018.52 1018.85 1019.45 1019.89 1019.92 1020.83 1020.92 1021.46
1026.58 1025.95 1025.39 1024.72 1024.07 1023.45 1022.73 1021.82 1021.47 1020.79 1020.04 1019.38 1018.79 1018.15 1017.16 1016.45 1015.40 1014.46 1013.11 1012.40 1012.01 1011.67 1011.63 1011.99 1012.29 1012.81 1013.52 1014.01 1014.44 1015.32 1015.90 1016.29 1017.06 1017.64 1018.21 1018.57 1018.70 1019.44 1020.20 1020.25 1020.52 1020.89 1021.50
1027.04 1026.37 1025.72 1025.07 1024.39 1023.68 1022.88 1022.19 1021.32 1020.39 1020.10 1019.56 1018.90 1018.12 1017.42 1016.37 1015.41 1014.40 1013.55 1012.57 1011.86 1011.39 1011.36 1011.88 1012.61 1013.19 1013.91 1014.49 1015.00 1015.55 1016.17 1016.79 1017.21 1017.71 1018.32 1018.70 1019.08 1019.47 1019.85 1020.27 1020.90 1021.26 1022.07
1026.63 1026.08 1025.53 1025.06 1024.51 1023.82 1023.11 1022.50 1021.90 1021.13 1020.22 1019.64 1019.31 1018.53 1017.55 1016.85 1015.72 1014.59 1013.90 1012.82 1012.22 1011.87 1011.85 1012.32 1013.11 1013.64 1014.30 1014.89 1015.44 1016.00 1016.52 1017.08 1017.59 1018.14 1018.47 1018.90 1019.46 1019.80 1020.22 1020.63 1021.16 1021.79 1022.33
1026.48 1025.90 1025.31 1024.90 1024.56 1023.98 1023.25 1022.67 1022.16 1021.52 1020.80 1020.04 1019.23 1018.59 1017.98 1017.15 1016.18 1015.47 1014.55 1014.04 1013.30 1012.80 1012.60 1012.77 1013.32 1013.87 1014.35 1014.91 1015.42 1016.06 1016.73 1017.27 1017.76 1018.25 1018.73 1019.13 1019.61 1020.10 1020.56 1020.98 1021.37 1022.01 1022.42
1026.13 1025.46 1024.90 1024.58 1024.04 1023.42 1022.92 1022.55 1022.08 1021.62 1021.09 1020.38 1019.69 1019.00 1018.10 1017.51 1016.89 1016.57 1015.98 1015.15 1014.50 1014.15 1013.95 1013.65 1013.94 1014.02 1014.24 1014.92 1015.55 1016.16 1016.80 1017.30 1017.80 1018.28 1018.81 1019.26 1019.74 1020.15 1020.65 1021.15 1021.62 1022.26 1022.87
1025.72 1025.11 1024.71 1024.36 1024.01 1023.49 1023.04 1022.62 1022.14 1021.70 1021.13 1020.69 1020.04 1019.33 1018.12 1017.67 1017.57 1017.30 1016.77 1016.11 1015.56 1015.03 1014.90 1014.84 1014.84 1014.72 1014.92 1015.23 1015.84 1016.42 1016.96 1017.43 1017.90 1018.39 1018.98 1019.53 1019.96 1020.32 1020.80 1021.27 1021.83 1022.48 1023.15
1025.20 1024.77 1024.38 1024.10 1023.68 1023.38 1023.04 1022.70 1022.33 1021.79 1021.27 1020.72 1020.14 1019.60 1018.70 1018.38 1018.01 1017.66 1017.26 1016.69 1016.21 1015.81 1015.56 1015.39 1015.35 1015.35 1015.58 1015.64 1015.97 1016.42 1016.90 1017.42 1018.03 1018.60 1019.18 1019.72 1020.17 1020.61 1021.06 1021.57 1022.16 1022.79 1023.48
1024.85 1024.46 1024.14 1023.88 1023.55 1023.26 1022.94 1022.65 1022.44 1022.00 1021.50 1020.82 1020.22 1019.74 1019.19 1018.66 1018.20 1017.80 1017.39 1016.97 1016.64 1016.35 1016.11 1015.86 1015.77 1015.88 1016.08 1016.06 1016.20 1016.45 1016.74 1017.12 1017.63 1018.26 1018.99 1019.75 1020.29 1020.83 1021.32 1021.80 1022.33 1023.01 1023.63
1024.76 1024.54 1024.35 1024.02 1023.73 1023.39 1023.02 1022.65 1022.36 1022.03 1021.51 1020.91 1020.32 1019.79 1019.30 1018.77 1018.44 1018.07 1017.59 1017.26 1017.02 1016.83 1016.65 1016.42 1016.25 1016.22 1016.38 1016.49 1016.53 1016.69 1016.83 1017.15 1017.57 1018.09 1018.76 1019.44 1020.14 1020.82 1021.42 1022.02 1022.53 1023.13 1023.63
1024.47 1024.20 1024.15 1023.97 1023.71 1023.42 1023.01 1022.55 1022.18 1021.83 1021.36 1020.87 1020.30 1019.82 1019.30 1018.86 1018.45 1018.08 1017.68 1017.44 1017.29 1017.09 1016.88 1016.73 1016.65 1016.54 1016.55 1016.69 1016.87 1017.00 1017.12 1017.27 1017.75 1018.08 1018.67 1019.28 1019.97 1020.69 1021.34 1021.94 1022.46 1023.07 1023.58
1024.40 1024.20 1024.05 1023.89 1023.86 1023.41 1022.99 1022.52 1022.07 1021.63 1021.17 1020.60 1020.06 1019.62 1019.19 1018.72 1018.31 1017.95 1017.64 1017.45 1017.36 1017.25 1017.09 1016.95 1016.91 1016.87 1016.87 1016.92 1017.02 1017.21 1017.43 1017.70 1018.07 1018.35 1018.70 1019.21 1019.89 1020.60 1021.14 1021.69 1022.26 1022.76 1023.31
Wind_Speed
4 4 5 5 5 5 5 5 5 4 6 5 6 6 6 6 6 6 6 6 7 7 6 6 7 5 4 4 3 4 5 5 4 1 2 8 11 10 9 8 6 4 5
6 6 7 6 6 5 6 6 6 6 5 6 6 6 6 6 6 7 7 6 7 7 6 7 7 4 6 5 4 6 5 4 3 4 3 6 7 12 10 10 8 6 4
6 6 5 6 6 6 6 7 7 7 6 6 6 7 7 6 7 7 7 7 7 7 6 7 6 6 6 4 5 5 4 3 3 3 3 3 4 9 9 8 9 8 5
7 7 7 7 7 7 7 7 7 6 7 6 6 7 6 6 6 6 7 7 7 8 7 7 6 6 6 5 5 5 4 4 2 3 3 5 7 8 7 9 6 5 6
7 7 7 7 7 7 7 8 8 7 8 7 8 7 7 7 7 7 7 7 8 8 7 7 6 6 4 3 2 3 3 3 4 4 3 3 7 10 13 7 7 8 2
6 6 6 7 7 7 7 8 8 8 8 7 7 7 8 7 11 13 11 7 8 7 9 7 6 5 4 4 3 2 4 4 6 4 5 8 12 10 9 10 9 9 7
6 6 6 6 7 7 7 7 8 8 7 8 8 7 8 7 14 16 14 7 9 10 9 7 6 4 6 5 6 5 6 6 2 5 6 7 7 11 11 13 14 11 5
6 6 6 7 8 8 8 9 8 7 7 8 8 7 8 7 16 17 16 8 9 10 10 7 7 6 7 6 5 3 2 3 2 3 2 1 3 7 11 8 10 7 6
6 8 9 9 10 10 10 10 9 9 10 9 8 8 9 9 15 18 16 8 9 11 9 7 7 6 13 15 8 9 5 3 5 7 12 14 15 9 8 8 7 8 3
8 9 9 9 10 10 10 11 9 9 11 9 11 10 10 11 15 19 16 7 10 9 10 8 11 9 15 18 10 9 8 8 8 8 6 11 10 9 9 3 5 7 4
8 9 9 8 9 9 9 9 9 10 10 9 10 10 8 9 9 18 19 10 10 10 10 6 3 16 16 19 18 10 10 11 13 7 6 5 6 6 5 5 6 4 4
8 8 9 8 7 7 8 7 8 7 8 10 11 10 9 10 17 18 21 20 20 12 11 6 7 17 19 21 17 16 16 13 7 6 5 5 5 6 5 5 7 7 7
7 7 7 8 7 7 7 9 7 6 7 8 8 9 10 9 9 20 19 19 20 14 11 11 16 18 21 19 20 18 12 7 6 6 6 5 5 6 7 7 7 9 10
7 8 8 8 9 8 6 6 5 6 7 8 9 10 11 10 9 9 6 6 11 12 16 6 9 10 10 5 4 5 7 5 4 4 5 6 6 5 5 5 5 5 5
6 7 6 6 7 8 6 6 7 6 9 10 9 10 11 11 10 22 21 11 7 10 10 2 3 2 4 5 6 6 6 6 5 5 6 5 6 5 5 5 4 4 3
6 5 6 6 6 6 7 7 11 17 19 20 21 18 11 22 27 28 27 22 19 25 5 2 2 5 6 6 7 6 5 6 4 5 5 5 6 6 6 5 5 3 4
5 7 6 6 5 7 7 7 11 10 17 19 20 22 23 23 24 25 25 22 20 22 5 3 4 5 4 4 5 4 4 4 5 5 3 4 5 5 6 5 4 5 5
5 8 5 3 5 6 5 7 7 9 11 9 12 19 20 24 23 23 24 20 7 3 2 6 5 5 5 5 5 5 5 5 5 4 4 5 4 5 5 5 4 4 5
4 4 4 3 4 6 6 6 6 8 8 9 9 11 12 22 21 19 19 6 3 2 2 6 6 6 6 6 6 6 6 6 6 5 5 5 5 5 4 4 4 6 6
5 7 5 4 4 5 4 5 6 7 8 8 8 9 10 4 6 7 6 7 4 4 4 2 3 4 6 6 6 6 5 6 6 5 5 5 5 5 5 5 5 5 3
4 4 6 3 3 3 4 5 5 7 7 7 8 7 22 6 4 4 5 5 5 3 2 2 1 3 4 5 5 5 5 5 5 5 5 5 5 5 4 4 5 5 5
4 4 3 4 5 5 5 4 6 6 7 7 8 8 20 5 4 4 3 4 4 3 2 2 2 3 2 4 5 5 6 6 5 5 5 5 5 5 5 5 5 4 4
3 4 4 4 4 5 6 3 6 5 7 6 6 7 7 6 4 4 3 3 3 2 3 2 2 2 2 2 3 4 6 6 6 6 7 6 5 5 5 5 5 4 4
3 5 5 5 4 4 5 7 5 7 7 6 6 5 7 6 5 6 3 3 3 3 2 2 1 2 2 2 2 2 3 4 5 6 8 7 6 7 5 4 5 4 5
4 4 4 4 4 5 5 5 6 6 6 6 6 5 7 6 6 4 3 2 3 3 3 2 2 1 3 4 3 4 4 8 6 7 6 7 8 9 6 5 5 4 3
4 3 3 3 4 5 5 7 7 6 8 8 8 7 7 7 6 5 3 3 3 3 3 2 2 3 2 3 4 6 6 8 7 8 6 6 7 6 5 6 7 4 4
Wind_Direction
0 348 342 325 315 314 301 295 285 288 296 298 285 286 285 280 279 277 270 270 272 272 269 273 265 270 262 252 250 247 239 208 198 169 134 167 172 169 173 169 165 140 139
6 4 350 338 335 330 324 319 314 307 308 294 294 288 283 279 275 270 272 267 266 270 267 270 265 265 260 253 247 239 249 233 182 165 160 166 189 176 164 164 162 149 146
10 6 356 352 356 348 341 338 334 319 306 301 288 277 269 267 270 266 262 262 258 262 259 260 262 253 260 247 250 251 250 248 214 164 162 159 165 167 162 165 179 144 157
2 5 1 357 356 353 341 332 324 317 306 298 287 284 283 280 274 274 272 273 273 267 258 253 249 248 256 242 244 241 235 229 237 168 161 166 170 171 171 165 162 136 151
358 3 355 354 349 343 340 336 331 328 320 311 311 308 301 297 291 282 272 273 271 272 270 264 246 237 209 222 208 226 218 227 234 194 170 155 177 176 181 167 167 142 80
356 342 354 354 343 334 330 323 319 313 311 309 304 294 295 293 289 288 280 260 264 273 270 257 245 203 236 236 227 204 177 212 237 212 200 198 192 187 177 167 153 159 175
346 360 358 345 331 326 320 317 310 305 303 300 296 295 291 284 287 285 279 256 261 263 261 248 238 207 199 211 221 182 142 142 30 284 230 216 192 186 169 177 176 174 159
360 2 349 340 330 325 323 317 310 307 302 297 292 288 288 287 293 294 286 260 256 255 255 245 228 201 200 183 166 144 51 37 76 127 138 119 152 166 185 173 162 113 79
14 352 346 338 330 327 323 319 315 313 311 302 298 293 290 293 298 303 301 281 264 265 255 237 222 204 197 199 180 167 159 150 109 93 105 110 108 88 112 124 143 145 133
356 344 337 331 330 322 319 322 320 314 310 312 312 310 302 302 305 310 309 296 287 283 277 256 228 207 209 218 187 178 177 183 154 118 102 91 80 95 101 70 143 161 119
343 334 327 328 319 313 319 318 314 316 316 313 317 321 300 299 303 315 317 311 302 292 282 257 204 236 233 228 194 190 184 156 148 118 100 93 86 70 57 49 49 107 115
341 326 324 318 317 319 317 312 314 314 321 329 330 329 330 329 326 322 318 310 305 298 288 259 209 215 231 229 221 196 188 151 130 127 137 134 120 102 82 55 57 65 54
333 325 319 314 311 320 319 319 319 323 328 330 329 322 319 320 315 312 310 304 305 303 297 260 213 224 236 234 234 193 168 141 150 150 148 136 123 116 112 96 83 82 75
332 323 319 321 329 322 316 314 313 315 323 324 322 318 315 314 316 305 277 268 282 297 310 246 223 218 233 83 83 130 118 127 134 129 123 108 108 129 134 123 125 119 89
320 312 315 321 313 311 309 314 321 315 317 320 318 311 314 312 308 307 308 305 289 288 301 164 211 118 105 105 95 98 105 107 115 122 127 125 131 127 120 122 137 133 100
316 315 314 311 306 311 316 316 323 326 327 321 319 318 312 310 313 313 307 298 304 313 282 169 159 142 155 149 135 126 118 119 115 121 130 145 143 140 146 123 118 121 115
291 301 301 302 312 320 325 329 324 327 326 326 324 324 319 322 327 322 341 332 329 320 260 148 149 132 128 121 123 123 130 124 120 131 139 139 140 134 142 129 133 126 133
264 273 284 300 310 310 314 312 308 319 322 324 323 323 329 332 327 333 334 327 312 3 63 123 122 120 124 125 125 128 131 130 135 134 136 137 136 140 141 145 146 148 144
280 272 272 283 292 296 299 306 310 311 312 313 318 327 325 331 342 347 347 346 317 335 128 119 130 141 141 143 145 144 144 151 150 147 143 137 136 143 143 142 135 142 124
280 279 283 273 286 293 304 306 308 314 313 314 318 320 319 341 357 338 336 342 353 360 356 91 98 132 132 137 138 139 144 151 150 145 141 138 139 149 151 150 144 141 136
269 276 285 284 274 272 284 296 307 302 304 308 307 307 318 352 322 309 324 341 346 4 33 27 65 97 116 123 131 139 147 147 148 141 146 150 151 152 145 146 139 142 141
261 268 278 283 293 295 295 289 296 293 301 299 309 309 323 323 312 308 314 329 340 353 3 56 83 82 116 139 145 148 150 148 147 146 147 145 145 142 143 146 146 141 138
278 290 285 283 281 294 299 292 299 292 298 291 296 306 313 314 314 313 308 319 335 345 352 21 77 88 77 109 134 157 162 165 162 155 153 153 154 153 156 155 155 144 145
284 285 286 293 291 294 292 297 292 292 295 299 298 296 303 308 308 309 305 324 320 324 330 342 3 151 139 111 100 112 125 132 147 160 156 155 152 153 149 150 161 153 154
270 275 278 283 287 286 291 289 289 290 291 292 293 292 297 297 297 294 301 302 301 293 285 294 293 245 192 181 177 152 168 160 147 147 144 147 153 155 160 160 155 139 124
270 270 274 282 286 283 284 291 289 287 293 294 294 290 287 286 286 284 282 273 279 279 278 264 262 247 216 197 180 175 183 160 160 153 144 146 149 152 151 153 154 152 148